DAH5360 DAAG-FAOR

Flight info

Callsign DAH5360
Flight time N/A
Altitude 37000
Route BSA1F BSA UJ36 TGU UM508 BOD UM998 NEBRA/N0457F390 UM998 INISA UT237 FL UM731 KIVDO UA406 AKMEX UM214 OKLAP/N0452F400 UM214 ETMIT/N0438F390 UT433 UTIGU/N0361F240 Z7 OKPIT OKPIT1D
Aircraft A332/H-SDE3GHIJ2J3J5M1RVWXY/LB2D1

Departure

Time 2026-05-06 11:14
Airport Houari Boumediene Airport (DAAG)

Arrival

Time N/A
Airport O.R. Tambo International Airport (FAOR)
Time Latitude Longitude Altitude Speed Heading
2026-05-06 10:59 36.69553 3.20242 69 ft 0 kts
2026-05-06 11:07 36.69540 3.20241 66 ft 4 kts
2026-05-06 11:07 36.69513 3.20241 73 ft 4 kts
2026-05-06 11:07 36.69486 3.20238 73 ft 4 kts
2026-05-06 11:07 36.69460 3.20238 71 ft 4 kts 337°
2026-05-06 11:08 36.69446 3.20258 63 ft 4 kts 299°
2026-05-06 11:08 36.69429 3.20282 63 ft 4 kts 332°
2026-05-06 11:08 36.69404 3.20292 63 ft 4 kts 359°
2026-05-06 11:08 36.69379 3.20291 66 ft 2 kts
2026-05-06 11:09 36.69378 3.20291 64 ft 1 kts
2026-05-06 11:10 36.69390 3.20291 64 ft 6 kts
2026-05-06 11:10 36.69438 3.20336 65 ft 12 kts 62°
2026-05-06 11:11 36.69444 3.20451 71 ft 15 kts 91°
2026-05-06 11:11 36.69441 3.20592 71 ft 17 kts 92°
2026-05-06 11:11 36.69437 3.20739 63 ft 16 kts 91°
2026-05-06 11:11 36.69403 3.20866 65 ft 16 kts 143°
2026-05-06 11:12 36.69296 3.20921 63 ft 14 kts 162°
2026-05-06 11:12 36.69247 3.20940 67 ft 6 kts 163°
2026-05-06 11:12 36.69188 3.20960 70 ft 11 kts 168°
2026-05-06 11:12 36.69118 3.20934 85 ft 10 kts 245°
2026-05-06 11:13 36.69117 3.20818 83 ft 26 kts 271°
2026-05-06 11:13 36.69130 3.20339 79 ft 83 kts 272°
2026-05-06 11:13 36.69151 3.19393 71 ft 133 kts 271°
2026-05-06 11:13 36.69181 3.18064 86 ft 173 kts 272°
2026-05-06 11:14 36.69204 3.16499 443 ft 187 kts 272°
2026-05-06 11:14 36.69215 3.14823 916 ft 198 kts 272°
2026-05-06 11:14 36.69226 3.13065 1430 ft 208 kts 272°
2026-05-06 11:14 36.69238 3.11206 1842 ft 221 kts 272°
2026-05-06 11:15 36.69241 3.09252 2052 ft 238 kts 271°
2026-05-06 11:15 36.68917 3.07143 2353 ft 257 kts 249°
2026-05-06 11:15 36.67858 3.05311 2907 ft 268 kts 219°
2026-05-06 11:15 36.66133 3.04466 3563 ft 271 kts 183°
2026-05-06 11:16 36.64301 3.04884 4316 ft 270 kts 159°
2026-05-06 11:16 36.62634 3.05989 4973 ft 274 kts 147°
2026-05-06 11:16 36.61106 3.07409 5689 ft 274 kts 141°
2026-05-06 11:16 36.59644 3.08935 6473 ft 274 kts 141°
2026-05-06 11:17 36.58179 3.10473 7141 ft 277 kts 143°
2026-05-06 11:17 36.56688 3.11978 7740 ft 282 kts 144°
2026-05-06 11:17 36.55122 3.13485 8363 ft 286 kts 145°
2026-05-06 11:17 36.53516 3.14973 9044 ft 289 kts 146°
2026-05-06 11:18 36.51880 3.16452 9721 ft 293 kts 147°
2026-05-06 11:18 36.50207 3.17948 10258 ft 302 kts 146°
2026-05-06 11:18 36.48450 3.19504 10554 ft 319 kts 147°
2026-05-06 11:18 36.46596 3.21145 10786 ft 336 kts 147°
2026-05-06 11:19 36.44654 3.22872 11059 ft 350 kts 147°
2026-05-06 11:19 36.42654 3.24657 11482 ft 358 kts 147°
2026-05-06 11:19 36.40618 3.26481 12037 ft 362 kts 146°
2026-05-06 11:19 36.38567 3.28320 12617 ft 366 kts 147°
2026-05-06 11:20 36.36491 3.30178 13194 ft 369 kts 147°
2026-05-06 11:20 36.34392 3.32052 13762 ft 373 kts 147°
2026-05-06 11:20 36.32282 3.33933 14273 ft 375 kts 147°
2026-05-06 11:20 36.30148 3.35834 14757 ft 379 kts 147°
2026-05-06 11:21 36.28000 3.37747 15261 ft 382 kts 147°
2026-05-06 11:21 36.25833 3.39674 15752 ft 385 kts 147°
2026-05-06 11:21 36.23648 3.41614 16256 ft 388 kts 148°
2026-05-06 11:21 36.21449 3.43566 16717 ft 391 kts 148°
2026-05-06 11:22 36.19232 3.45533 17177 ft 394 kts 148°
2026-05-06 11:22 36.16997 3.47515 17661 ft 397 kts 148°
2026-05-06 11:22 36.14739 3.49514 18118 ft 400 kts 148°
2026-05-06 11:22 36.12465 3.51528 18529 ft 403 kts 148°
2026-05-06 11:23 36.10208 3.53528 18929 ft 405 kts 148°
2026-05-06 11:23 36.07910 3.55563 19348 ft 408 kts 148°
2026-05-06 11:23 36.05595 3.57608 19738 ft 411 kts 148°
2026-05-06 11:23 36.03260 3.59670 20135 ft 413 kts 148°
2026-05-06 11:24 36.00909 3.61738 20536 ft 416 kts 149°
2026-05-06 11:24 35.98545 3.63812 20919 ft 418 kts 149°
2026-05-06 11:24 35.96169 3.65901 21323 ft 420 kts 148°
2026-05-06 11:24 35.93783 3.68005 21708 ft 423 kts 148°
2026-05-06 11:25 35.91380 3.70125 22088 ft 425 kts 148°
2026-05-06 11:25 35.88968 3.72251 22473 ft 428 kts 149°
2026-05-06 11:25 35.86535 3.74392 22821 ft 430 kts 149°
2026-05-06 11:25 35.84091 3.76539 23166 ft 432 kts 149°
2026-05-06 11:26 35.81637 3.78692 23502 ft 435 kts 149°
2026-05-06 11:26 35.79167 3.80857 23793 ft 437 kts 149°
2026-05-06 11:26 35.76677 3.83037 24038 ft 440 kts 149°
2026-05-06 11:26 35.74204 3.85200 24302 ft 443 kts 149°
2026-05-06 11:27 35.71686 3.87402 24612 ft 444 kts 149°
2026-05-06 11:27 35.69159 3.89610 24905 ft 446 kts 149°
2026-05-06 11:27 35.66619 3.91827 25120 ft 450 kts 149°
2026-05-06 11:27 35.64056 3.94061 25345 ft 453 kts 150°
2026-05-06 11:28 35.62348 3.95549 25532 ft 454 kts 150°
2026-05-06 11:28 35.59763 3.97801 25804 ft 456 kts 150°
2026-05-06 11:28 35.57167 4.00061 26064 ft 458 kts 150°
2026-05-06 11:28 35.54559 4.02329 26335 ft 461 kts 150°
2026-05-06 11:29 35.51931 4.04612 26603 ft 463 kts 150°
2026-05-06 11:29 35.48438 4.07644 26955 ft 465 kts 151°
2026-05-06 11:29 35.46646 4.09198 27119 ft 467 kts 151°
2026-05-06 11:29 35.43992 4.11499 27391 ft 468 kts 151°
2026-05-06 11:30 35.41318 4.13814 27542 ft 473 kts 152°
2026-05-06 11:30 35.38646 4.16119 27607 ft 479 kts 152°
2026-05-06 11:30 35.35880 4.18507 27855 ft 481 kts 152°
2026-05-06 11:30 35.33176 4.20843 28076 ft 483 kts 152°
2026-05-06 11:31 35.30409 4.23206 28279 ft 486 kts 153°
2026-05-06 11:31 35.27622 4.25564 28509 ft 488 kts 153°
2026-05-06 11:31 35.24821 4.27923 28745 ft 489 kts 153°
2026-05-06 11:31 35.22004 4.30290 28966 ft 492 kts 154°
2026-05-06 11:32 35.19173 4.32667 29173 ft 494 kts 154°
2026-05-06 11:32 35.16328 4.35056 29342 ft 497 kts 154°
2026-05-06 11:32 35.13465 4.37462 29341 ft 503 kts 155°
2026-05-06 11:32 35.10559 4.39887 29514 ft 506 kts 155°
2026-05-06 11:33 35.07692 4.42288 29764 ft 508 kts 155°
2026-05-06 11:33 35.04772 4.44738 29955 ft 510 kts 155°
2026-05-06 11:33 35.01847 4.47192 30135 ft 512 kts 156°
2026-05-06 11:33 34.98905 4.49657 30309 ft 513 kts 156°
2026-05-06 11:34 34.95953 4.52128 30543 ft 514 kts 156°
2026-05-06 11:34 34.93007 4.54592 30795 ft 514 kts 156°
2026-05-06 11:34 34.90055 4.57058 30936 ft 515 kts 156°
2026-05-06 11:34 34.87089 4.59531 31088 ft 517 kts 156°
2026-05-06 11:35 34.84117 4.62006 31266 ft 518 kts 156°
2026-05-06 11:35 34.81190 4.64444 31573 ft 517 kts 156°
2026-05-06 11:35 34.78227 4.66914 31886 ft 515 kts 157°
2026-05-06 11:35 34.75275 4.69371 32182 ft 513 kts 157°
2026-05-06 11:36 34.72328 4.71819 32469 ft 512 kts 157°
2026-05-06 11:36 34.69388 4.74258 32734 ft 511 kts 157°
2026-05-06 11:36 34.66458 4.76687 33000 ft 509 kts 158°
2026-05-06 11:36 34.63531 4.79111 33225 ft 508 kts 158°
2026-05-06 11:37 34.60620 4.81522 33597 ft 504 kts 158°
2026-05-06 11:37 34.57726 4.83918 33917 ft 501 kts 158°
2026-05-06 11:37 34.54843 4.86299 34110 ft 501 kts 158°
2026-05-06 11:37 34.51962 4.88672 34241 ft 501 kts 158°
2026-05-06 11:38 34.49076 4.91046 34388 ft 501 kts 158°
2026-05-06 11:38 34.46225 4.93391 34568 ft 501 kts 158°
2026-05-06 11:38 34.43336 4.95767 34722 ft 501 kts 158°
2026-05-06 11:39 34.37550 5.00522 34931 ft 504 kts 157°
2026-05-06 11:39 34.34653 5.02931 35107 ft 503 kts 157°
2026-05-06 11:39 34.31778 5.05339 35320 ft 502 kts 157°
2026-05-06 11:39 34.28903 5.07749 35468 ft 502 kts 157°
2026-05-06 11:40 34.26029 5.10156 35600 ft 502 kts 157°
2026-05-06 11:40 34.23153 5.12561 35746 ft 502 kts 157°
2026-05-06 11:40 34.20278 5.14961 35880 ft 502 kts 157°
2026-05-06 11:40 34.17406 5.17355 36018 ft 502 kts 157°
2026-05-06 11:41 34.14561 5.19723 36147 ft 502 kts 157°
2026-05-06 11:41 34.11677 5.22122 36285 ft 502 kts 157°
2026-05-06 11:41 34.08803 5.24510 36376 ft 502 kts 156°
2026-05-06 11:41 34.05933 5.26895 36614 ft 500 kts 156°
2026-05-06 11:42 34.03068 5.29273 36758 ft 499 kts 156°
2026-05-06 11:42 33.97349 5.34012 36768 ft 497 kts 156°
2026-05-06 11:43 33.91635 5.38735 36782 ft 498 kts 156°
2026-05-06 11:43 33.85903 5.43465 36776 ft 499 kts 156°
2026-05-06 11:44 33.77358 5.50510 36769 ft 496 kts 156°
2026-05-06 11:44 33.71673 5.55188 36768 ft 495 kts 156°
2026-05-06 11:45 33.65982 5.59858 36766 ft 495 kts 156°
2026-05-06 11:45 33.60290 5.64522 36763 ft 495 kts 156°
2026-05-06 11:46 33.54600 5.69178 36726 ft 494 kts 156°
2026-05-06 11:46 33.48938 5.73801 36763 ft 497 kts 155°
2026-05-06 11:47 33.43207 5.78473 36763 ft 498 kts 155°
2026-05-06 11:47 33.37470 5.83148 36764 ft 498 kts 155°
2026-05-06 11:48 33.31729 5.87818 36758 ft 498 kts 155°
2026-05-06 11:48 33.25997 5.92472 36749 ft 498 kts 155°
2026-05-06 11:49 33.20255 5.97125 36746 ft 498 kts 155°
2026-05-06 11:49 33.14551 6.01741 36746 ft 498 kts 155°
2026-05-06 11:50 33.08788 6.06319 36747 ft 492 kts 160°
2026-05-06 11:50 33.05761 6.08089 36746 ft 478 kts 170°
2026-05-06 11:50 33.02637 6.09222 36727 ft 462 kts 179°
2026-05-06 11:51 32.96331 6.10507 36744 ft 459 kts 183°
2026-05-06 11:51 32.89964 6.11482 36746 ft 464 kts 184°
2026-05-06 11:52 32.83551 6.12445 36741 ft 464 kts 183°
2026-05-06 11:52 32.77184 6.13441 36742 ft 464 kts 183°
2026-05-06 11:53 32.70787 6.14461 36743 ft 464 kts 183°
2026-05-06 11:53 32.64374 6.15484 36744 ft 465 kts 183°
2026-05-06 11:54 32.57961 6.16505 36746 ft 465 kts 183°
2026-05-06 11:54 32.51545 6.17524 36746 ft 465 kts 183°
2026-05-06 11:55 32.45180 6.18533 36721 ft 464 kts 182°
2026-05-06 11:55 32.38783 6.19547 36747 ft 463 kts 182°
2026-05-06 11:56 32.32396 6.20557 36742 ft 462 kts 182°
2026-05-06 11:56 32.26012 6.21565 36742 ft 462 kts 182°
2026-05-06 11:57 32.19634 6.22570 36748 ft 462 kts 182°
2026-05-06 11:57 32.13253 6.23574 36746 ft 462 kts 182°
2026-05-06 11:58 32.06925 6.24569 36744 ft 461 kts 182°
2026-05-06 11:58 32.00568 6.25567 36745 ft 461 kts 182°
2026-05-06 11:59 31.94192 6.26566 36751 ft 461 kts 182°
2026-05-06 11:59 31.87824 6.27562 36760 ft 462 kts 182°
2026-05-06 12:00 31.81438 6.28558 36766 ft 463 kts 182°
2026-05-06 12:00 31.75042 6.29557 36769 ft 464 kts 182°
2026-05-06 12:01 31.68643 6.30556 36769 ft 464 kts 182°
2026-05-06 12:01 31.62247 6.31552 36731 ft 464 kts 181°
2026-05-06 12:02 31.55875 6.32542 36755 ft 465 kts 181°
2026-05-06 12:02 31.49441 6.33540 36756 ft 466 kts 181°
2026-05-06 12:03 31.43011 6.34538 36755 ft 466 kts 181°
2026-05-06 12:03 31.36583 6.35534 36757 ft 466 kts 181°
2026-05-06 12:04 31.30146 6.36528 36759 ft 467 kts 181°
2026-05-06 12:04 31.23733 6.37516 36748 ft 468 kts 181°
2026-05-06 12:05 31.17273 6.38514 36760 ft 468 kts 181°
2026-05-06 12:05 31.10816 6.39509 36746 ft 468 kts 181°
2026-05-06 12:06 31.04358 6.40502 36753 ft 468 kts 181°
2026-05-06 12:06 30.97903 6.41494 36755 ft 467 kts 181°
2026-05-06 12:07 30.91462 6.42482 36755 ft 467 kts 181°
2026-05-06 12:07 30.85057 6.43463 36755 ft 467 kts 181°
2026-05-06 12:08 30.78612 6.44447 36726 ft 467 kts 181°
2026-05-06 12:08 30.72169 6.45431 36753 ft 466 kts 181°
2026-05-06 12:09 30.65747 6.46411 36751 ft 465 kts 181°
2026-05-06 12:09 30.59316 6.47389 36751 ft 465 kts 181°
2026-05-06 12:10 30.52891 6.48366 36753 ft 465 kts 181°
2026-05-06 12:10 30.46473 6.49341 36753 ft 465 kts 181°
2026-05-06 12:11 30.40092 6.50309 36749 ft 465 kts 181°
2026-05-06 12:11 30.33669 6.51281 36749 ft 465 kts 181°
2026-05-06 12:12 30.27248 6.52253 36752 ft 465 kts 181°
2026-05-06 12:12 30.20832 6.53222 36747 ft 465 kts 181°
2026-05-06 12:13 30.14416 6.54190 36746 ft 465 kts 181°
2026-05-06 12:13 30.08002 6.55157 36745 ft 464 kts 181°
2026-05-06 12:14 30.01589 6.56122 36747 ft 464 kts 181°
2026-05-06 12:14 29.95218 6.57079 36747 ft 465 kts 181°
2026-05-06 12:15 29.88803 6.58041 36753 ft 465 kts 181°
2026-05-06 12:15 29.82387 6.59003 36745 ft 465 kts 181°
2026-05-06 12:16 29.75969 6.59964 36751 ft 465 kts 181°
2026-05-06 12:16 29.69544 6.60925 36755 ft 465 kts 181°
2026-05-06 12:17 29.63162 6.61878 36747 ft 465 kts 181°
2026-05-06 12:17 29.56740 6.62835 36752 ft 465 kts 181°
2026-05-06 12:18 29.51361 6.63637 36758 ft 465 kts 181°
2026-05-06 12:18 29.44984 6.64585 36758 ft 465 kts 181°
2026-05-06 12:19 29.38562 6.65539 36755 ft 465 kts 181°
2026-05-06 12:19 29.32142 6.66491 36755 ft 465 kts 181°
2026-05-06 12:20 29.25712 6.67444 36760 ft 465 kts 181°
2026-05-06 12:20 29.19287 6.68396 36763 ft 465 kts 181°
2026-05-06 12:21 29.12863 6.69346 36766 ft 465 kts 181°
2026-05-06 12:21 29.06480 6.70288 36749 ft 465 kts 181°
2026-05-06 12:22 29.00039 6.71238 36772 ft 466 kts 181°
2026-05-06 12:22 28.93605 6.72185 36775 ft 466 kts 181°
2026-05-06 12:23 28.87164 6.73134 36763 ft 466 kts 181°
2026-05-06 12:23 28.80721 6.74079 36774 ft 466 kts 181°
2026-05-06 12:24 28.74324 6.75017 36770 ft 467 kts 181°
2026-05-06 12:24 28.67870 6.75963 36777 ft 468 kts 181°
2026-05-06 12:25 28.61404 6.76909 36778 ft 468 kts 181°
2026-05-06 12:25 28.54949 6.77854 36781 ft 468 kts 181°
2026-05-06 12:26 28.48480 6.78798 36766 ft 468 kts 181°
2026-05-06 12:26 28.42011 6.79741 36786 ft 469 kts 181°
2026-05-06 12:27 28.35585 6.80676 36780 ft 470 kts 181°
2026-05-06 12:27 28.29103 6.81621 36783 ft 469 kts 181°
2026-05-06 12:28 28.22627 6.82563 36791 ft 470 kts 181°
2026-05-06 12:28 28.16142 6.83504 36784 ft 471 kts 181°
2026-05-06 12:29 28.09688 6.85424 36796 ft 485 kts 170°
2026-05-06 12:29 28.03304 6.87979 36793 ft 487 kts 168°
2026-05-06 12:30 27.96939 6.90653 36800 ft 488 kts 168°
2026-05-06 12:30 27.90569 6.93316 36796 ft 487 kts 168°
2026-05-06 12:31 27.84233 6.95945 36791 ft 488 kts 169°
2026-05-06 12:31 27.77848 6.98594 36794 ft 488 kts 169°
2026-05-06 12:32 27.71457 7.01235 36801 ft 488 kts 169°
2026-05-06 12:32 27.65069 7.03867 36803 ft 488 kts 169°
2026-05-06 12:33 27.58726 7.06475 36802 ft 488 kts 169°
2026-05-06 12:33 27.52337 7.09101 36801 ft 488 kts 169°
2026-05-06 12:34 27.45950 7.11722 36800 ft 488 kts 169°